Location: Alta
(39.2070°N, 120.8111°W)
Time: 18:26:45
(UTC+00:00)

MOZHAYETS 4 - Visible Passes

Search period start: 28 March 2023 00:00
Search period end: 07 April 2023 00:00
Orbit: 658 x 676 km, 98.2° (Epoch: 28 March)

Date Brightness Start Highest point End Pass type
(mag) Time Alt. Az. Time Alt. Az. Time Alt. Az.
28 Mar 10.6 10:31:37 11° N 10:31:37 11° N 10:31:44 10° N visible
29 Mar 10.4 11:03:35 10° NNW 11:03:35 10° NNW 11:03:36 10° NNW visible
30 Mar 10.7 09:57:24 11° NNE 09:57:24 11° NNE 09:57:40 10° NNE visible
31 Mar 10.4 10:29:21 14° N 10:29:21 14° N 10:30:02 10° N visible
01 Apr 10.1 11:01:18 14° NNW 11:01:18 14° NNW 11:01:54 10° NNW visible
02 Apr 10.6 09:55:07 14° NNE 09:55:07 14° NNE 09:55:54 10° NNE visible
02 Apr 10.2 11:33:14 10° NNW 11:33:14 10° NNW 11:33:18 10° NNW visible
03 Apr 10.1 10:27:03 18° N 10:27:03 18° N 10:28:17 10° N visible
04 Apr 9.8 10:58:58 18° NNW 10:58:58 18° NNW 11:00:11 10° NNW visible
05 Apr 10.4 09:52:46 16° NNE 09:52:46 16° NNE 09:54:05 10° NNE visible
05 Apr 9.9 11:30:54 14° NW 11:30:54 14° NW 11:31:35 10° NNW visible
06 Apr 9.8 10:24:42 22° NNE 10:24:42 22° NNE 10:26:29 10° N visible
